This is the latest recevied weather packets stored in our database for station/object IU3OVK-13. If no packets are shown the sender has not sent any weather packets the latest 10 day(s).
| Time | Temp. | Humidity | Pressure | Rain* | Wind** | Luminosity | Snow |
|---|---|---|---|---|---|---|---|
| 1777481687 | 12.78° C | 99% | 1011.4 hPa | - | - | - | - |
| 1777481068 | 12.78° C | 99% | 1011.4 hPa | - | - | - | - |
| 1777480447 | 12.78° C | 99% | 1011.4 hPa | - | - | - | - |
| 1777479206 | 13.89° C | 99% | 1011.7 hPa | - | - | - | - |
| 1777478586 | 13.89° C | 99% | 1011.6 hPa | - | - | - | - |
| 1777477966 | 13.89° C | 99% | 1011.6 hPa | - | - | - | - |
| 1777475486 | 15° C | 99% | 1011.7 hPa | - | - | - | - |
| 1777474865 | 15° C | 99% | 1011.9 hPa | - | - | - | - |
| 1777474245 | 15° C | 99% | 1011.7 hPa | - | - | - | - |
| 1777473625 | 14.44° C | 99% | 1011.8 hPa | - | - | - | - |
| 1777472386 | 14.44° C | 99% | 1012 hPa | - | - | - | - |
| 1777469284 | 13.89° C | 99% | 1011.9 hPa | - | - | - | - |
| 1777467424 | 13.33° C | 99% | 1011.8 hPa | - | - | - | - |
| 1777465563 | 13.89° C | 99% | 1011.9 hPa | - | - | - | - |
| 1777464323 | 14.44° C | 99% | 1011.7 hPa | - | - | - | - |
| 1777462462 | 14.44° C | 99% | 1011.7 hPa | - | - | - | - |
| 1777459982 | 13.89° C | 99% | 1011.7 hPa | - | - | - | - |
| 1777458741 | 14.44° C | 99% | 1011.6 hPa | - | - | - | - |
| 1777457501 | 13.89° C | 99% | 1011.7 hPa | - | - | - | - |
| 1777456881 | 13.89° C | 99% | 1011.9 hPa | - | - | - | - |
| 1777456262 | 13.89° C | 99% | 1011.9 hPa | - | - | - | - |
| 1777455641 | 13.89° C | 99% | 1011.8 hPa | - | - | - | - |
| 1777455021 | 14.44° C | 99% | 1011.7 hPa | - | - | - | - |
| 1777454400 | 14.44° C | 99% | 1011.7 hPa | - | - | - | - |
| 1777453780 | 14.44° C | 99% | 1011.7 hPa | - | - | - | - |
* Rain since midnight (hover to see other rain measurements)
** Current wind speed in m/s (hover to see current wind gust speed)